Voltar ao catálogo

THORAD AGENA D DEB

AtivoSSO
NORAD 4643·DEBRIS·🇺🇸 United States

Lançado Apr 8, 1970 de Vandenberg Space Force Base

Loading…

Próximas Passagens (próximas 24 horas)

TLE

AtualizadoSource: Space-Track

Época: Sep 14, 2026, 10:04 UTC

1 04643U 70025AB  26257.41994394  .00000085  00000-0  18279-3 0  9999
2 04643  99.3805 101.4120 0011069 358.8685 120.5156 13.55268793783896

Acompanhe THORAD AGENA D DEB em tempo real com AllMySat

Download on the App Store